Location: Keppel Henge
(44.7900°N, 80.9447°W)
Time: 16:01:04
(UTC-04:00)

Vanguard 1 Rocket - All Passes

Search period start: 15 July 2018 00:00
Search period end: 25 July 2018 00:00
Orbit: 652 x 4225 km, 34.3° (Epoch: 14 July)

Date Brightness Start Highest point End Pass type
(mag) Time Alt. Az. Time Alt. Az. Time Alt. Az.
15 Jul - 07:54:11 10° S 08:07:12 20° SSE 08:16:43 10° ESE daylight
15 Jul - 10:19:06 10° SW 10:35:04 37° SSE 10:44:09 10° E daylight
15 Jul - 12:49:16 10° WSW 13:01:29 44° S 13:08:08 10° ESE daylight
15 Jul - 15:19:32 10° WSW 15:26:00 25° SSW 15:30:23 10° SSE daylight
16 Jul - 06:46:24 10° SSE 06:54:22 13° SE 07:01:10 10° ESE daylight
16 Jul - 09:05:43 10° SSW 09:22:39 32° SSE 09:33:05 10° E daylight
16 Jul - 11:34:56 10° WSW 11:49:58 45° S 11:57:59 10° ESE daylight
16 Jul - 14:05:50 10° W 14:15:26 36° SSW 14:21:03 10° SE daylight
16 Jul - 16:38:26 10° SW 16:38:53 10° SW 16:39:19 10° SW daylight
17 Jul - 07:53:29 10° SSW 08:09:53 26° SSE 08:21:09 10° E daylight
17 Jul - 10:20:33 10° SW 10:37:57 43° SSE 10:47:31 10° E daylight
17 Jul - 12:51:39 10° WSW 13:04:25 45° S 13:11:16 10° ESE daylight
17 Jul - 15:22:35 10° W 15:28:43 21° SW 15:33:00 10° SSE daylight
18 Jul - 06:43:14 10° S 06:56:55 19° SE 07:07:37 10° ESE daylight
18 Jul - 09:06:34 10° SW 09:25:25 38° SSE 09:36:36 10° E daylight
18 Jul - 11:37:00 10° WSW 11:52:52 49° S 12:01:11 10° ESE daylight
18 Jul - 14:08:31 10° W 14:18:15 34° SSW 14:23:59 10° SE daylight
19 Jul - 05:38:24 10° SSE 05:43:56 11° SE 05:49:04 10° ESE daylight
19 Jul - 07:53:33 10° SSW 08:12:30 32° SSE 08:25:01 10° E daylight
19 Jul - 10:22:13 10° WSW 10:40:47 48° S 10:50:46 10° E daylight
19 Jul - 12:54:05 10° W 13:07:17 45° SSW 13:14:21 10° SE daylight
19 Jul - 15:25:51 10° WSW 15:31:19 18° SW 15:35:20 10° S daylight
20 Jul - 06:42:05 10° S 06:59:22 25° SE 07:12:17 10° E daylight
20 Jul - 09:07:47 10° SW 09:28:09 44° SSE 09:39:58 10° E daylight
20 Jul - 11:39:11 10° WSW 11:55:44 51° S 12:04:21 10° ESE daylight
20 Jul - 14:11:16 10° W 14:20:57 31° SSW 14:26:47 10° SSE daylight
21 Jul - 05:33:19 10° SSE 05:46:15 17° SE 05:57:16 10° ESE daylight
21 Jul - 07:54:11 10° SSW 08:15:04 38° SSE 08:28:33 10° E daylight
21 Jul - 10:24:05 10° WSW 10:43:35 52° S 10:53:57 10° ESE daylight
21 Jul - 12:56:34 10° W 13:10:04 43° SSW 13:17:21 10° SE daylight
21 Jul - 15:29:30 10° WSW 15:33:48 14° SW 15:37:11 10° SSW daylight
22 Jul - 06:41:54 10° SSW 07:01:45 31° SSE 07:16:15 10° E daylight
22 Jul - 09:09:16 10° SW 09:30:50 50° SSE 09:43:11 10° E daylight
22 Jul - 11:41:26 10° WSW 11:58:32 52° S 12:07:26 10° ESE daylight
22 Jul - 14:14:06 10° W 14:23:33 27° SW 14:29:24 10° SSE daylight
23 Jul - 05:31:35 10° S 05:48:27 22° SE 06:02:26 10° E visible
23 Jul - 07:55:13 10° SW 08:17:35 44° SSE 08:31:53 10° E daylight
23 Jul - 10:26:06 10° WSW 10:46:20 55° S 10:57:05 10° ESE daylight
23 Jul - 12:59:05 10° W 13:12:45 40° SSW 13:20:15 10° SE daylight
23 Jul - 15:34:16 10° WSW 15:36:08 11° SW 15:37:50 10° SW daylight
24 Jul - 04:25:08 10° SSE 04:35:25 14° SE 04:44:59 10° ESE visible
24 Jul - 06:42:21 10° SSW 07:04:04 37° SSE 07:19:49 10° E daylight
24 Jul - 09:10:59 10° WSW 09:33:28 54° S 09:46:20 10° E daylight
24 Jul - 11:43:45 10° W 12:01:16 51° SSW 12:10:27 10° ESE daylight
24 Jul - 14:17:05 10° W 14:25:59 23° SW 14:31:47 10° S daylight
